Time,TemperatureF,DewpointF,PressureIn,WindDirection,WindDirectionDegrees,WindSpeedMPH,WindSpeedGustMPH,Humidity,HourlyPrecipIn,Conditions,Clouds,dailyrainin,SoftwareType,DateUTC
2013-06-15 00:01:00,58.7,56.7,29.88,NE,45,1.2,1.2,93,0.00,CLR,,0.76,WeatherDisplay:10.37,2013-06-15 04:01:00,
2013-06-15 00:02:00,58.7,56.7,29.88,NE,45,1.2,1.2,93,0.00,CLR,,0.76,WeatherDisplay:10.37,2013-06-15 04:02:00,
2013-06-15 00:03:00,58.9,56.9,29.88,NE,45,1.2,0.0,93,0.00,RA,,0.00,WeatherDisplay:10.37,2013-06-15 04:03:00,
2013-06-15 00:04:00,58.5,56.5,29.88,ENE,62,0.0,0.1,93,0.00,RA,,0.00,WeatherDisplay:10.37,2013-06-15 04:04:00,
2013-06-15 00:09:00,58.6,56.6,29.88,West,267,0.0,0.1,93,0.00,RA,,0.00,WeatherDisplay:10.37,2013-06-15 04:09:00,
2013-06-15 00:14:00,58.8,56.5,29.88,South,184,0.0,0.0,92,0.00,CLR,,0.00,WeatherDisplay:10.37,2013-06-15 04:14:00,
2013-06-15 00:19:00,58.8,56.5,29.88,ESE,112,0.0,0.0,92,0.00,CLR,,0.00,WeatherDisplay:10.37,2013-06-15 04:19:00,
2013-06-15 00:24:00,58.5,56.2,29.88,ESE,112,0.0,0.0,92,0.00,CLR,,0.00,WeatherDisplay:10.37,2013-06-15 04:24:00,
2013-06-15 00:29:00,58.6,56.3,29.88,ESE,112,0.0,0.0,92,0.00,CLR,,0.00,WeatherDisplay:10.37,2013-06-15 04:29:00,
2013-06-15 00:34:00,58.5,56.5,29.88,WNW,295,1.2,0.0,93,0.00,CLR,,0.00,WeatherDisplay:10.37,2013-06-15 04:34:00,
2013-06-15 00:39:00,58.5,56.2,29.88,NNW,333,1.2,1.2,92,0.00,CLR,,0.00,WeatherDisplay:10.37,2013-06-15 04:39:00,
2013-06-15 00:44:00,58.5,56.5,29.88,NNW,333,0.0,0.0,93,0.00,CLR,,0.00,WeatherDisplay:10.37,2013-06-15 04:44:00,
2013-06-15 00:49:00,58.6,56.6,29.88,NNW,333,0.0,0.0,93,0.00,CLR,,0.00,WeatherDisplay:10.37,2013-06-15 04:49:00,
2013-06-15 00:54:00,58.6,56.6,29.88,West,275,3.5,3.5,93,0.00,CLR,,0.00,WeatherDisplay:10.37,2013-06-15 04:54:00,
2013-06-15 00:59:00,58.4,56.4,29.89,WSW,256,2.3,2.3,93,0.00,CLR,,0.00,WeatherDisplay:10.37,2013-06-15 04:59:00,
2013-06-15 01:04:00,58.4,56.4,29.89,North,352,3.5,3.5,93,0.00,CLR,,0.00,WeatherDisplay:10.37,2013-06-15 05:04:00,
2013-06-15 01:09:00,58.3,56.3,29.89,NW,304,0.0,0.0,93,0.00,CLR,,0.00,WeatherDisplay:10.37,2013-06-15 05:09:00,
2013-06-15 01:14:00,58.4,56.4,29.89,WNW,296,3.5,3.5,93,0.00,CLR,,0.00,WeatherDisplay:10.37,2013-06-15 05:14:00,
2013-06-15 01:19:00,58.5,56.5,29.89,SE,127,1.2,1.2,93,0.00,CLR,,0.00,WeatherDisplay:10.37,2013-06-15 05:19:00,
2013-06-15 01:24:00,58.7,56.4,29.89,West,265,2.3,2.3,92,0.00,CLR,,0.00,WeatherDisplay:10.37,2013-06-15 05:24:00,
2013-06-15 01:29:00,59.0,56.7,29.89,WNW,285,2.3,0.0,92,0.00,CLR,,0.00,WeatherDisplay:10.37,2013-06-15 05:29:00,
2013-06-15 01:34:00,58.9,56.6,29.89,SE,138,0.0,0.0,92,0.00,CLR,,0.00,WeatherDisplay:10.37,2013-06-15 05:34:00,
2013-06-15 01:39:00,58.7,56.4,29.89,WSW,241,3.5,3.5,92,0.00,CLR,,0.00,WeatherDisplay:10.37,2013-06-15 05:39:00,
2013-06-15 01:44:00,58.6,56.3,29.89,North,4,2.3,2.3,92,0.00,CLR,,0.00,WeatherDisplay:10.37,2013-06-15 05:44:00,
2013-06-15 01:49:00,58.7,56.4,29.89,NNW,337,1.2,1.2,92,0.00,CLR,,0.00,WeatherDisplay:10.37,2013-06-15 05:49:00,
2013-06-15 01:54:00,58.5,56.2,29.89,NW,316,0.0,0.0,92,0.00,CLR,,0.00,WeatherDisplay:10.37,2013-06-15 05:54:00,
2013-06-15 01:59:00,58.5,56.2,29.90,NW,320,4.6,4.6,92,0.00,CLR,,0.00,WeatherDisplay:10.37,2013-06-15 05:59:00,
2013-06-15 02:04:00,58.5,56.2,29.90,WSW,258,4.6,4.6,92,0.00,CLR,,0.00,WeatherDisplay:10.37,2013-06-15 06:04:00,
2013-06-15 02:09:00,58.5,56.2,29.90,NNE,17,4.6,4.6,92,0.00,CLR,,0.00,WeatherDisplay:10.37,2013-06-15 06:09:00,
2013-06-15 02:14:00,58.5,56.2,29.90,NNE,30,9.2,9.2,92,0.00,CLR,,0.00,WeatherDisplay:10.37,2013-06-15 06:14:00,
2013-06-15 02:19:00,58.5,56.5,29.90,North,10,3.5,3.5,93,0.00,CLR,,0.00,WeatherDisplay:10.37,2013-06-15 06:19:00,
2013-06-15 02:24:00,58.4,56.4,29.91,ENE,64,11.5,11.5,93,0.00,CLR,,0.00,WeatherDisplay:10.37,2013-06-15 06:24:00,
2013-06-15 02:29:00,58.6,56.3,29.91,NE,34,4.6,4.6,92,0.00,CLR,,0.00,WeatherDisplay:10.37,2013-06-15 06:29:00,
2013-06-15 02:34:00,59.1,56.8,29.91,North,350,5.8,5.8,92,0.00,CLR,,0.00,WeatherDisplay:10.37,2013-06-15 06:34:00,
2013-06-15 02:39:00,58.9,56.6,29.91,WNW,289,1.2,1.2,92,0.00,CLR,,0.00,WeatherDisplay:10.37,2013-06-15 06:39:00,
2013-06-15 02:44:00,58.8,56.2,29.91,West,264,2.3,2.3,91,0.00,CLR,,0.00,WeatherDisplay:10.37,2013-06-15 06:44:00,
2013-06-15 02:49:00,59.1,56.5,29.92,North,356,8.1,8.1,91,0.00,CLR,,0.00,WeatherDisplay:10.37,2013-06-15 06:49:00,
2013-06-15 02:54:00,58.8,56.2,29.92,NW,316,2.3,2.3,91,0.00,CLR,,0.00,WeatherDisplay:10.37,2013-06-15 06:54:00,
2013-06-15 02:59:00,58.9,56.3,29.93,WNW,296,2.3,2.3,91,0.00,CLR,,0.00,WeatherDisplay:10.37,2013-06-15 06:59:00,
2013-06-15 03:04:00,58.7,56.1,29.93,NW,309,2.3,2.3,91,0.00,CLR,,0.00,WeatherDisplay:10.37,2013-06-15 07:04:00,
2013-06-15 03:09:00,58.5,56.2,29.92,NNW,347,1.9,1.9,92,0.00,CLR,,0.00,WeatherDisplay:10.37,2013-06-15 07:09:00,
2013-06-15 03:14:00,58.7,56.1,29.92,NW,319,2.7,2.7,91,0.00,CLR,,0.00,WeatherDisplay:10.37,2013-06-15 07:14:00,
2013-06-15 03:19:00,58.7,56.1,29.92,WSW,257,5.8,5.8,91,0.00,CLR,,0.00,WeatherDisplay:10.37,2013-06-15 07:19:00,
2013-06-15 03:24:00,58.7,56.1,29.92,West,265,2.3,2.3,91,0.00,CLR,,0.00,WeatherDisplay:10.37,2013-06-15 07:24:00,
2013-06-15 03:29:00,58.6,56.0,29.92,North,8,6.9,6.9,91,0.00,CLR,,0.00,WeatherDisplay:10.37,2013-06-15 07:29:00,
2013-06-15 03:34:00,58.7,56.1,29.92,West,271,2.3,2.3,91,0.00,CLR,,0.00,WeatherDisplay:10.37,2013-06-15 07:34:00,
2013-06-15 03:39:00,58.7,56.1,29.92,SW,222,2.1,2.1,91,0.00,CLR,,0.00,WeatherDisplay:10.37,2013-06-15 07:39:00,
2013-06-15 03:44:00,58.5,55.9,29.92,SW,220,1.2,1.2,91,0.00,CLR,,0.00,WeatherDisplay:10.37,2013-06-15 07:44:00,
2013-06-15 03:49:00,58.3,55.7,29.92,West,277,0.0,0.0,91,0.00,CLR,,0.00,WeatherDisplay:10.37,2013-06-15 07:49:00,
2013-06-15 03:54:00,58.0,55.4,29.92,SSW,212,2.3,2.3,91,0.00,CLR,,0.00,WeatherDisplay:10.37,2013-06-15 07:54:00,
2013-06-15 03:59:00,58.1,55.5,29.92,WSW,251,1.2,1.8,91,0.00,CLR,,0.00,WeatherDisplay:10.37,2013-06-15 07:59:00,
2013-06-15 04:04:00,57.8,55.5,29.93,NW,308,2.5,2.5,92,0.00,CLR,,0.00,WeatherDisplay:10.37,2013-06-15 08:04:00,
2013-06-15 04:09:00,57.7,55.4,29.92,WNW,294,2.3,2.3,92,0.00,CLR,,0.00,WeatherDisplay:10.37,2013-06-15 08:09:00,
2013-06-15 04:14:00,57.5,55.2,29.92,WSW,239,3.5,3.5,92,0.00,CLR,,0.00,WeatherDisplay:10.37,2013-06-15 08:14:00,
2013-06-15 04:19:00,57.3,55.0,29.92,WNW,288,3.5,3.5,92,0.00,CLR,,0.00,WeatherDisplay:10.37,2013-06-15 08:19:00,
2013-06-15 04:24:00,57.3,55.3,29.93,WNW,288,0.0,0.2,93,0.00,CLR,,0.00,WeatherDisplay:10.37,2013-06-15 08:24:00,
2013-06-15 04:29:00,57.2,55.2,29.93,WNW,288,0.0,0.0,93,0.00,CLR,,0.00,WeatherDisplay:10.37,2013-06-15 08:29:00,
2013-06-15 04:34:00,57.1,55.1,29.93,NNW,337,3.5,3.5,93,0.00,CLR,,0.00,WeatherDisplay:10.37,2013-06-15 08:34:00,
2013-06-15 04:39:00,57.0,55.0,29.93,West,277,2.3,2.3,93,0.00,CLR,,0.00,WeatherDisplay:10.37,2013-06-15 08:39:00,
2013-06-15 04:44:00,56.8,54.8,29.93,West,277,1.2,1.2,93,0.00,CLR,,0.00,WeatherDisplay:10.37,2013-06-15 08:44:00,
2013-06-15 04:49:00,56.7,54.7,29.93,NW,322,1.2,1.2,93,0.00,CLR,,0.00,WeatherDisplay:10.37,2013-06-15 08:49:00,
2013-06-15 04:54:00,56.7,55.0,29.93,West,275,2.3,2.3,94,0.00,CLR,,0.00,WeatherDisplay:10.37,2013-06-15 08:54:00,
2013-06-15 04:59:00,56.7,55.0,29.93,West,274,1.2,1.2,94,0.00,CLR,,0.00,WeatherDisplay:10.37,2013-06-15 08:59:00,
2013-06-15 05:04:00,56.6,54.9,29.94,NE,48,0.0,0.0,94,0.00,CLR,,0.00,WeatherDisplay:10.37,2013-06-15 09:04:00,
2013-06-15 05:09:00,56.7,55.0,29.94,ENE,68,0.0,0.1,94,0.00,CLR,,0.00,WeatherDisplay:10.37,2013-06-15 09:09:00,
2013-06-15 05:14:00,56.7,55.0,29.94,NW,315,0.0,0.0,94,0.00,CLR,,0.00,WeatherDisplay:10.37,2013-06-15 09:14:00,
2013-06-15 05:19:00,56.6,54.9,29.95,WSW,254,1.2,1.2,94,0.00,CLR,,0.00,WeatherDisplay:10.37,2013-06-15 09:19:00,
2013-06-15 05:24:00,56.3,54.6,29.95,NW,305,0.0,0.0,94,0.00,CLR,,0.00,WeatherDisplay:10.37,2013-06-15 09:24:00,
2013-06-15 05:29:00,56.3,54.6,29.95,North,11,0.0,0.0,94,0.00,CLR,,0.00,WeatherDisplay:10.37,2013-06-15 09:29:00,
2013-06-15 05:34:00,56.1,54.4,29.95,WNW,301,5.8,5.8,94,0.00,CLR,,0.00,WeatherDisplay:10.37,2013-06-15 09:34:00,
2013-06-15 05:39:00,56.4,54.7,29.95,NNW,344,0.0,0.0,94,0.00,CLR,,0.00,WeatherDisplay:10.37,2013-06-15 09:39:00,
2013-06-15 05:44:00,56.3,54.6,29.95,WNW,291,2.3,0.0,94,0.00,CLR,,0.00,WeatherDisplay:10.37,2013-06-15 09:44:00,
2013-06-15 05:49:00,56.2,54.5,29.95,WNW,291,0.0,0.0,94,0.00,CLR,,0.00,WeatherDisplay:10.37,2013-06-15 09:49:00,
2013-06-15 05:54:00,56.1,54.4,29.95,WNW,291,0.0,0.0,94,0.00,CLR,,0.00,WeatherDisplay:10.37,2013-06-15 09:54:00,
2013-06-15 05:59:00,56.0,54.6,29.95,WNW,291,0.0,0.0,95,0.00,CLR,,0.00,WeatherDisplay:10.37,2013-06-15 09:59:00,
2013-06-15 06:04:00,56.0,54.6,29.95,WNW,291,0.0,0.0,95,0.00,CLR,,0.00,WeatherDisplay:10.37,2013-06-15 10:04:00,
2013-06-15 06:09:00,56.0,54.6,29.95,WNW,291,0.0,0.0,95,0.00,CLR,,0.00,WeatherDisplay:10.37,2013-06-15 10:09:00,
2013-06-15 06:14:00,55.9,54.5,29.96,WNW,291,0.0,0.0,95,0.00,CLR,,0.00,WeatherDisplay:10.37,2013-06-15 10:14:00,
2013-06-15 06:19:00,56.0,54.6,29.96,WNW,291,0.0,0.0,95,0.00,CLR,,0.00,WeatherDisplay:10.37,2013-06-15 10:19:00,
2013-06-15 06:24:00,56.0,54.6,29.96,WNW,291,0.0,0.0,95,0.00,CLR,,0.00,WeatherDisplay:10.37,2013-06-15 10:24:00,
2013-06-15 06:29:00,55.9,54.5,29.95,WNW,291,0.0,0.0,95,0.00,CLR,,0.00,WeatherDisplay:10.37,2013-06-15 10:29:00,
2013-06-15 06:34:00,56.0,54.6,29.96,WNW,291,0.0,0.0,95,0.00,CLR,,0.00,WeatherDisplay:10.37,2013-06-15 10:34:00,
2013-06-15 06:39:00,56.0,54.6,29.96,WNW,291,0.0,0.0,95,0.00,CLR,,0.00,WeatherDisplay:10.37,2013-06-15 10:39:00,
2013-06-15 06:44:00,56.1,54.7,29.96,WNW,291,0.0,0.0,95,0.00,CLR,,0.00,WeatherDisplay:10.37,2013-06-15 10:44:00,
2013-06-15 06:49:00,56.2,54.8,29.96,WNW,291,0.0,0.0,95,0.00,CLR,,0.00,WeatherDisplay:10.37,2013-06-15 10:49:00,
2013-06-15 06:54:00,56.4,55.0,29.96,WNW,291,0.0,0.0,95,0.00,CLR,,0.00,WeatherDisplay:10.37,2013-06-15 10:54:00,
2013-06-15 06:59:00,56.6,55.2,29.96,WNW,291,0.0,0.0,95,0.00,CLR,,0.00,WeatherDisplay:10.37,2013-06-15 10:59:00,
2013-06-15 07:04:00,56.8,55.4,29.97,WNW,291,0.0,0.0,95,0.00,CLR,,0.00,WeatherDisplay:10.37,2013-06-15 11:04:00,
2013-06-15 07:09:00,56.8,55.4,29.96,West,267,1.2,1.2,95,0.00,CLR,,0.00,WeatherDisplay:10.37,2013-06-15 11:09:00,
2013-06-15 07:14:00,57.2,55.8,29.96,WNW,289,1.2,1.2,95,0.00,CLR,,0.00,WeatherDisplay:10.37,2013-06-15 11:14:00,
2013-06-15 07:19:00,57.5,56.1,29.97,WNW,287,2.3,2.3,95,0.00,CLR,,0.00,WeatherDisplay:10.37,2013-06-15 11:19:00,
2013-06-15 07:24:00,57.6,56.2,29.97,West,260,2.3,2.3,95,0.00,CLR,,0.00,WeatherDisplay:10.37,2013-06-15 11:24:00,
2013-06-15 07:29:00,57.7,56.3,29.97,NW,312,2.3,2.3,95,0.00,CLR,,0.00,WeatherDisplay:10.37,2013-06-15 11:29:00,
2013-06-15 07:34:00,57.9,56.2,29.97,NW,308,2.3,2.3,94,0.00,CLR,,0.00,WeatherDisplay:10.37,2013-06-15 11:34:00,
2013-06-15 07:39:00,58.1,56.4,29.97,NW,304,1.2,1.2,94,0.00,CLR,,0.00,WeatherDisplay:10.37,2013-06-15 11:39:00,
2013-06-15 07:44:00,58.4,56.7,29.97,WNW,289,2.3,2.3,94,0.00,CLR,,0.00,WeatherDisplay:10.37,2013-06-15 11:44:00,
2013-06-15 07:49:00,58.6,56.6,29.97,WNW,292,5.8,5.8,93,0.00,CLR,,0.00,WeatherDisplay:10.37,2013-06-15 11:49:00,
2013-06-15 07:54:00,58.6,56.3,29.97,NW,319,2.3,2.3,92,0.00,CLR,,0.00,WeatherDisplay:10.37,2013-06-15 11:54:00,
2013-06-15 07:59:00,59.0,56.4,29.97,NNW,337,3.5,3.5,91,0.00,CLR,,0.00,WeatherDisplay:10.37,2013-06-15 11:59:00,
2013-06-15 08:04:00,59.5,56.6,29.98,NE,35,3.5,3.5,90,0.00,CLR,,0.00,WeatherDisplay:10.37,2013-06-15 12:04:00,
2013-06-15 08:09:00,60.1,56.6,29.98,NNE,17,2.5,2.5,88,0.00,CLR,,0.00,WeatherDisplay:10.37,2013-06-15 12:09:00,
2013-06-15 08:14:00,60.7,56.5,29.98,NNW,332,5.8,5.8,86,0.00,CLR,,0.00,WeatherDisplay:10.37,2013-06-15 12:14:00,
2013-06-15 08:19:00,61.4,57.2,29.98,NNW,333,3.5,3.5,86,0.00,CLR,,0.00,WeatherDisplay:10.37,2013-06-15 12:19:00,
2013-06-15 08:24:00,61.9,57.7,29.98,WNW,302,2.3,2.3,86,0.00,CLR,,0.00,WeatherDisplay:10.37,2013-06-15 12:24:00,
2013-06-15 08:29:00,62.5,57.6,29.98,NW,306,2.3,2.3,84,0.00,CLR,,0.00,WeatherDisplay:10.37,2013-06-15 12:29:00,
2013-06-15 08:34:00,62.8,56.9,29.99,WNW,292,3.5,3.5,81,0.00,CLR,,0.00,WeatherDisplay:10.37,2013-06-15 12:34:00,
2013-06-15 08:39:00,63.4,57.8,29.99,NW,318,3.5,3.5,82,0.00,CLR,,0.00,WeatherDisplay:10.37,2013-06-15 12:39:00,
2013-06-15 08:44:00,63.9,58.0,29.99,North,10,1.2,1.2,81,0.00,CLR,,0.00,WeatherDisplay:10.37,2013-06-15 12:44:00,
2013-06-15 08:49:00,64.8,58.5,29.99,NNW,329,0.0,0.0,80,0.00,CLR,,0.00,WeatherDisplay:10.37,2013-06-15 12:49:00,
2013-06-15 08:54:00,65.3,58.3,29.99,NW,326,3.5,3.5,78,0.00,CLR,,0.00,WeatherDisplay:10.37,2013-06-15 12:54:00,
2013-06-15 08:59:00,66.1,58.7,29.99,West,263,2.3,2.3,77,0.00,CLR,,0.00,WeatherDisplay:10.37,2013-06-15 12:59:00,
2013-06-15 09:04:00,66.1,59.1,29.99,West,260,3.5,3.5,78,0.00,CLR,,0.00,WeatherDisplay:10.37,2013-06-15 13:04:00,
2013-06-15 09:09:00,66.7,59.3,29.99,NW,320,4.6,4.6,77,0.00,CLR,,0.00,WeatherDisplay:10.37,2013-06-15 13:09:00,
2013-06-15 09:14:00,67.0,58.5,29.99,North,354,3.5,3.5,74,0.00,CLR,,0.00,WeatherDisplay:10.37,2013-06-15 13:14:00,
2013-06-15 09:19:00,67.5,58.2,29.99,North,10,5.8,5.8,72,0.00,CLR,,0.00,WeatherDisplay:10.37,2013-06-15 13:19:00,
2013-06-15 09:24:00,67.5,57.4,29.99,West,264,5.8,5.8,70,0.00,CLR,,0.00,WeatherDisplay:10.37,2013-06-15 13:24:00,
2013-06-15 09:29:00,67.9,56.2,29.99,East,79,4.6,4.6,66,0.00,CLR,,0.00,WeatherDisplay:10.37,2013-06-15 13:29:00,
2013-06-15 09:34:00,68.4,58.7,29.99,ENE,69,0.0,0.0,71,0.00,CLR,,0.00,WeatherDisplay:10.37,2013-06-15 13:34:00,
2013-06-15 09:39:00,68.7,56.9,29.99,NW,304,4.6,4.6,66,0.00,CLR,,0.00,WeatherDisplay:10.37,2013-06-15 13:39:00,
2013-06-15 09:44:00,68.8,56.2,29.99,WNW,287,9.2,9.2,64,0.00,CLR,,0.00,WeatherDisplay:10.37,2013-06-15 13:44:00,
2013-06-15 09:49:00,69.0,56.8,29.99,NNW,333,6.9,6.9,65,0.00,CLR,,0.00,WeatherDisplay:10.37,2013-06-15 13:49:00,
2013-06-15 09:54:00,69.0,57.2,29.99,WNW,302,6.9,6.9,66,0.00,CLR,,0.00,WeatherDisplay:10.37,2013-06-15 13:54:00,
2013-06-15 09:59:00,69.2,56.5,29.99,NNE,14,2.3,2.3,64,0.00,CLR,,0.00,WeatherDisplay:10.37,2013-06-15 13:59:00,
2013-06-15 10:04:00,69.2,57.0,29.99,SW,220,3.5,3.5,65,0.00,CLR,,0.00,WeatherDisplay:10.37,2013-06-15 14:04:00,
2013-06-15 10:09:00,69.8,56.7,29.99,SW,220,0.0,0.0,63,0.00,CLR,,0.00,WeatherDisplay:10.37,2013-06-15 14:09:00,
2013-06-15 10:14:00,69.9,55.0,29.98,WNW,284,2.3,2.3,59,0.00,CLR,,0.00,WeatherDisplay:10.37,2013-06-15 14:14:00,
2013-06-15 10:19:00,69.9,54.5,29.98,ESE,110,4.6,4.6,58,0.00,CLR,,0.00,WeatherDisplay:10.37,2013-06-15 14:19:00,
2013-06-15 10:24:00,69.9,55.0,29.98,North,356,5.8,5.8,59,0.00,CLR,,0.00,WeatherDisplay:10.37,2013-06-15 14:24:00,
2013-06-15 10:29:00,70.4,55.9,29.98,NNW,342,6.9,6.9,60,0.00,CLR,,0.00,WeatherDisplay:10.37,2013-06-15 14:29:00,
2013-06-15 10:34:00,70.2,54.8,29.98,NNW,342,4.6,4.6,58,0.00,CLR,,0.00,WeatherDisplay:10.37,2013-06-15 14:34:00,
2013-06-15 10:39:00,70.5,53.6,29.97,ENE,61,4.6,4.6,55,0.00,CLR,,0.00,WeatherDisplay:10.37,2013-06-15 14:39:00,
2013-06-15 10:44:00,70.7,53.8,29.97,WSW,253,4.6,4.6,55,0.00,CLR,,0.00,WeatherDisplay:10.37,2013-06-15 14:44:00,
2013-06-15 10:49:00,71.7,56.6,29.98,WSW,251,8.1,8.1,59,0.00,CLR,,0.00,WeatherDisplay:10.37,2013-06-15 14:49:00,
2013-06-15 10:54:00,71.6,54.1,29.98,NNW,332,5.0,5.0,54,0.00,CLR,,0.00,WeatherDisplay:10.37,2013-06-15 14:54:00,
2013-06-15 10:59:00,72.1,56.1,29.98,WNW,288,0.0,0.0,57,0.00,CLR,,0.00,WeatherDisplay:10.37,2013-06-15 14:59:00,
2013-06-15 11:04:00,72.1,56.1,29.98,NNE,14,3.5,3.5,57,0.00,CLR,,0.00,WeatherDisplay:10.37,2013-06-15 15:04:00,
2013-06-15 11:09:00,72.2,53.6,29.97,North,4,5.8,5.8,52,0.00,CLR,,0.00,WeatherDisplay:10.37,2013-06-15 15:09:00,
2013-06-15 11:14:00,72.2,55.2,29.97,NW,320,2.3,2.3,55,0.00,CLR,,0.00,WeatherDisplay:10.37,2013-06-15 15:14:00,
2013-06-15 11:19:00,72.5,56.9,29.98,WSW,253,5.8,5.8,58,0.00,CLR,,0.00,WeatherDisplay:10.37,2013-06-15 15:19:00,
2013-06-15 11:24:00,72.7,54.1,29.98,NNE,23,4.6,4.6,52,0.00,CLR,,0.00,WeatherDisplay:10.37,2013-06-15 15:24:00,
2013-06-15 11:29:00,72.9,55.8,29.98,NE,44,5.8,5.8,55,0.00,CLR,,0.00,WeatherDisplay:10.37,2013-06-15 15:29:00,
2013-06-15 11:34:00,73.6,54.9,29.98,ENE,66,2.3,2.3,52,0.00,CLR,,0.00,WeatherDisplay:10.37,2013-06-15 15:34:00,
2013-06-15 11:39:00,73.6,57.0,29.98,WNW,292,3.5,3.5,56,0.00,CLR,,0.00,WeatherDisplay:10.37,2013-06-15 15:39:00,
2013-06-15 11:44:00,73.6,54.9,29.98,WSW,247,5.8,5.8,52,0.00,CLR,,0.00,WeatherDisplay:10.37,2013-06-15 15:44:00,
2013-06-15 11:49:00,73.7,51.1,29.98,NNW,344,5.8,5.8,45,0.00,CLR,,0.00,WeatherDisplay:10.37,2013-06-15 15:49:00,
2013-06-15 11:54:00,73.7,50.5,29.98,West,261,3.5,3.5,44,0.00,CLR,,0.00,WeatherDisplay:10.37,2013-06-15 15:54:00,
2013-06-15 11:59:00,74.0,54.8,29.98,North,7,5.8,5.8,51,0.00,CLR,,0.00,WeatherDisplay:10.37,2013-06-15 15:59:00,
2013-06-15 12:04:00,74.1,54.3,29.98,NW,306,5.9,5.9,50,0.00,CLR,,0.00,WeatherDisplay:10.37,2013-06-15 16:04:00,
2013-06-15 12:09:00,73.8,50.6,29.98,West,274,8.1,8.1,44,0.00,CLR,,0.00,WeatherDisplay:10.37,2013-06-15 16:09:00,
2013-06-15 12:14:00,74.0,53.1,29.98,WSW,256,5.8,5.8,48,0.00,CLR,,0.00,WeatherDisplay:10.37,2013-06-15 16:14:00,
2013-06-15 12:19:00,74.2,51.5,29.97,NNE,14,8.1,8.1,45,0.00,CLR,,0.00,WeatherDisplay:10.37,2013-06-15 16:19:00,
2013-06-15 12:24:00,74.3,53.9,29.97,NW,313,9.2,9.2,49,0.00,CLR,,0.00,WeatherDisplay:10.37,2013-06-15 16:24:00,
2013-06-15 12:29:00,74.4,52.3,29.96,NW,319,5.8,5.8,46,0.00,CLR,,0.00,WeatherDisplay:10.37,2013-06-15 16:29:00,
2013-06-15 12:34:00,74.3,53.4,29.96,East,99,5.8,5.8,48,0.00,CLR,,0.00,WeatherDisplay:10.37,2013-06-15 16:34:00,
2013-06-15 12:39:00,74.5,55.2,29.96,NW,312,5.8,5.8,51,0.00,CLR,,0.00,WeatherDisplay:10.37,2013-06-15 16:39:00,
2013-06-15 12:44:00,74.8,52.7,29.96,SSE,147,5.8,5.8,46,0.00,CLR,,0.00,WeatherDisplay:10.37,2013-06-15 16:44:00,
2013-06-15 12:49:00,74.8,53.8,29.96,WNW,301,4.6,4.6,48,0.00,CLR,,0.00,WeatherDisplay:10.37,2013-06-15 16:49:00,
2013-06-15 12:54:00,74.6,53.6,29.96,NE,49,6.9,6.9,48,0.00,CLR,,0.00,WeatherDisplay:10.37,2013-06-15 16:54:00,
2013-06-15 12:59:00,74.8,53.8,29.96,SW,229,6.9,6.9,48,0.00,CLR,,0.00,WeatherDisplay:10.37,2013-06-15 16:59:00,
2013-06-15 13:04:00,74.8,54.9,29.96,West,280,7.8,7.8,50,0.00,CLR,,0.00,WeatherDisplay:10.37,2013-06-15 17:04:00,
2013-06-15 13:09:00,75.1,56.3,29.96,West,275,9.2,9.2,52,0.00,CLR,,0.00,WeatherDisplay:10.37,2013-06-15 17:09:00,
2013-06-15 13:14:00,75.4,52.0,29.96,West,278,8.1,8.1,44,0.00,CLR,,0.00,WeatherDisplay:10.37,2013-06-15 17:14:00,
2013-06-15 13:19:00,75.3,53.7,29.95,SSE,151,5.8,5.8,47,0.00,CLR,,0.00,WeatherDisplay:10.37,2013-06-15 17:19:00,
2013-06-15 13:24:00,75.0,51.0,29.96,WNW,291,8.1,8.1,43,0.00,CLR,,0.00,WeatherDisplay:10.37,2013-06-15 17:24:00,
2013-06-15 13:29:00,74.9,53.9,29.95,East,85,9.2,9.2,48,0.00,CLR,,0.00,WeatherDisplay:10.37,2013-06-15 17:29:00,
2013-06-15 13:34:00,75.1,52.3,29.95,WNW,284,11.5,11.5,45,0.00,CLR,,0.00,WeatherDisplay:10.37,2013-06-15 17:34:00,
2013-06-15 13:39:00,75.6,54.0,29.95,NW,320,6.9,6.9,47,0.00,CLR,,0.00,WeatherDisplay:10.37,2013-06-15 17:39:00,
2013-06-15 13:44:00,75.4,50.1,29.95,NW,305,8.1,8.1,41,0.00,CLR,,0.00,WeatherDisplay:10.37,2013-06-15 17:44:00,
2013-06-15 13:49:00,76.0,55.5,29.95,North,10,6.9,6.9,49,0.00,CLR,,0.00,WeatherDisplay:10.37,2013-06-15 17:49:00,
2013-06-15 13:54:00,75.8,52.4,29.95,SW,223,11.5,11.5,44,0.00,CLR,,0.00,WeatherDisplay:10.37,2013-06-15 17:54:00,
2013-06-15 13:59:00,75.5,51.5,29.95,SSW,202,4.6,4.6,43,0.00,CLR,,0.00,WeatherDisplay:10.37,2013-06-15 17:59:00,
2013-06-15 14:04:00,76.0,53.8,29.94,WSW,257,6.9,6.9,46,0.00,CLR,,0.00,WeatherDisplay:10.37,2013-06-15 18:04:00,
2013-06-15 14:09:00,76.1,52.0,29.94,NNW,347,9.2,9.2,43,0.00,CLR,,0.00,WeatherDisplay:10.37,2013-06-15 18:09:00,
2013-06-15 14:14:00,76.4,52.9,29.94,West,261,7.0,7.0,44,0.00,CLR,,0.00,WeatherDisplay:10.37,2013-06-15 18:14:00,
2013-06-15 14:19:00,76.6,51.8,29.93,SW,229,10.4,10.4,42,0.00,CLR,,0.00,WeatherDisplay:10.37,2013-06-15 18:19:00,
2013-06-15 14:24:00,76.4,52.9,29.93,NE,51,4.6,4.6,44,0.00,CLR,,0.00,WeatherDisplay:10.37,2013-06-15 18:24:00,
2013-06-15 14:29:00,76.4,52.3,29.93,WSW,250,9.2,9.2,43,0.00,CLR,,0.00,WeatherDisplay:10.37,2013-06-15 18:29:00,
2013-06-15 14:34:00,76.7,51.3,29.93,NE,37,5.8,5.8,41,0.00,CLR,,0.00,WeatherDisplay:10.37,2013-06-15 18:34:00,
2013-06-15 14:39:00,76.4,50.3,29.93,North,356,10.4,10.4,40,0.00,CLR,,0.00,WeatherDisplay:10.37,2013-06-15 18:39:00,
2013-06-15 14:44:00,76.6,55.5,29.93,West,268,5.8,5.8,48,0.00,CLR,,0.00,WeatherDisplay:10.37,2013-06-15 18:44:00,
2013-06-15 14:49:00,76.5,56.0,29.93,SW,232,5.8,5.8,49,0.00,CLR,,0.00,WeatherDisplay:10.37,2013-06-15 18:49:00,
2013-06-15 14:54:00,76.8,50.0,29.93,West,263,3.5,3.5,39,0.00,CLR,,0.00,WeatherDisplay:10.37,2013-06-15 18:54:00,
2013-06-15 14:59:00,76.6,54.3,29.93,NW,308,5.8,5.8,46,0.00,CLR,,0.00,WeatherDisplay:10.37,2013-06-15 18:59:00,
2013-06-15 15:04:00,76.7,49.9,29.93,NNE,25,6.9,6.9,39,0.00,-RA,,0.00,WeatherDisplay:10.37,2013-06-15 19:04:00,
2013-06-15 15:09:00,76.8,52.0,29.93,SSW,210,5.8,5.8,42,0.00,-RA,,0.00,WeatherDisplay:10.37,2013-06-15 19:09:00,
2013-06-15 15:14:00,77.0,50.2,29.92,NW,313,8.1,8.1,39,0.00,-RA,,0.00,WeatherDisplay:10.37,2013-06-15 19:14:00,
2013-06-15 15:19:00,76.9,48.7,29.92,South,184,5.8,5.8,37,0.00,-RA,,0.00,WeatherDisplay:10.37,2013-06-15 19:19:00,
2013-06-15 15:24:00,76.9,53.4,29.92,ESE,110,3.5,3.5,44,0.00,-RA,,0.00,WeatherDisplay:10.37,2013-06-15 19:24:00,
2013-06-15 15:29:00,76.9,52.1,29.92,NNE,28,4.6,4.6,42,0.00,-RA,,0.00,WeatherDisplay:10.37,2013-06-15 19:29:00,
2013-06-15 15:34:00,77.0,51.5,29.92,West,280,8.1,8.1,41,0.00,-RA,,0.00,WeatherDisplay:10.37,2013-06-15 19:34:00,
2013-06-15 15:39:00,77.0,54.1,29.92,SW,230,6.9,6.9,45,0.00,-RA,,0.00,WeatherDisplay:10.37,2013-06-15 19:39:00,
2013-06-15 15:44:00,77.3,53.1,29.91,NW,318,9.2,9.2,43,0.00,-RA,,0.00,WeatherDisplay:10.37,2013-06-15 19:44:00,
2013-06-15 15:49:00,77.4,53.2,29.91,NNE,17,9.2,9.2,43,0.00,-RA,,0.00,WeatherDisplay:10.37,2013-06-15 19:49:00,
2013-06-15 15:54:00,77.2,51.7,29.91,West,263,10.4,10.4,41,0.00,-RA,,0.00,WeatherDisplay:10.37,2013-06-15 19:54:00,
2013-06-15 15:59:00,77.4,51.2,29.91,NW,322,5.8,5.8,40,0.00,-RA,,0.00,WeatherDisplay:10.37,2013-06-15 19:59:00,
2013-06-15 16:04:00,77.5,52.6,29.91,SW,234,8.1,8.1,42,0.00,FEW,,0.00,WeatherDisplay:10.37,2013-06-15 20:04:00,
2013-06-15 16:09:00,77.7,52.8,29.91,WNW,291,6.9,6.9,42,0.00,FEW,,0.00,WeatherDisplay:10.37,2013-06-15 20:09:00,
2013-06-15 16:14:00,77.7,50.8,29.90,SSW,210,4.6,4.6,39,0.00,FEW,,0.00,WeatherDisplay:10.37,2013-06-15 20:14:00,
2013-06-15 16:19:00,77.7,51.5,29.90,West,278,2.3,2.3,40,0.00,FEW,,0.00,WeatherDisplay:10.37,2013-06-15 20:19:00,
2013-06-15 16:24:00,77.9,51.7,29.90,NNW,330,5.8,5.8,40,0.00,FEW,,0.00,WeatherDisplay:10.37,2013-06-15 20:24:00,
2013-06-15 16:29:00,77.7,52.2,29.90,ESE,103,0.0,0.0,41,0.00,FEW,,0.00,WeatherDisplay:10.37,2013-06-15 20:29:00,
2013-06-15 16:37:00,78.0,51.1,29.90,NW,306,6.9,6.9,39,0.00,FEW,,0.00,WeatherDisplay:10.37,2013-06-15 20:37:00,
2013-06-15 16:42:00,78.2,52.6,29.90,NNE,14,3.5,3.5,41,0.00,FEW,,0.00,WeatherDisplay:10.37,2013-06-15 20:42:00,
2013-06-15 16:47:00,78.3,50.6,29.90,West,275,8.1,8.1,38,0.00,FEW,,0.00,WeatherDisplay:10.37,2013-06-15 20:47:00,
2013-06-15 16:52:00,78.0,52.4,29.91,NNW,330,2.3,3.5,41,0.00,FEW,,0.00,WeatherDisplay:10.37,2013-06-15 20:52:00,
2013-06-15 16:57:00,78.4,54.1,29.91,NNW,339,7.3,7.3,43,0.00,FEW,,0.00,WeatherDisplay:10.37,2013-06-15 20:57:00,
2013-06-15 17:02:00,77.7,50.1,29.91,SW,234,5.8,5.8,38,0.00,BKN,,0.00,WeatherDisplay:10.37,2013-06-15 21:02:00,
2013-06-15 17:07:00,77.1,49.6,29.91,WSW,240,0.0,0.0,38,0.00,BKN,,0.00,WeatherDisplay:10.37,2013-06-15 21:07:00,
2013-06-15 17:12:00,76.7,51.9,29.90,WSW,251,1.4,1.4,42,0.00,BKN,,0.00,WeatherDisplay:10.37,2013-06-15 21:12:00,
2013-06-15 17:17:00,76.7,53.8,29.90,SW,236,4.6,4.6,45,0.00,BKN,,0.00,WeatherDisplay:10.37,2013-06-15 21:17:00,
2013-06-15 17:22:00,76.8,53.9,29.90,NW,316,4.6,4.6,45,0.00,BKN,,0.00,WeatherDisplay:10.37,2013-06-15 21:22:00,
2013-06-15 17:27:00,77.0,55.3,29.90,NW,311,0.0,1.0,47,0.00,BKN,,0.00,WeatherDisplay:10.37,2013-06-15 21:27:00,
2013-06-15 17:32:00,76.9,51.4,29.90,NW,306,4.6,5.3,41,0.00,BKN,,0.00,WeatherDisplay:10.37,2013-06-15 21:32:00,
2013-06-15 17:37:00,76.9,53.4,29.90,NW,319,5.8,5.8,44,0.00,BKN,,0.00,WeatherDisplay:10.37,2013-06-15 21:37:00,
2013-06-15 17:42:00,76.4,51.0,29.90,SW,223,6.9,6.9,41,0.00,BKN,,0.00,WeatherDisplay:10.37,2013-06-15 21:42:00,
2013-06-15 17:47:00,76.2,50.8,29.90,North,8,1.2,1.2,41,0.00,BKN,,0.00,WeatherDisplay:10.37,2013-06-15 21:47:00,
2013-06-15 17:52:00,75.9,52.5,29.90,West,270,5.8,5.8,44,0.00,BKN,,0.00,WeatherDisplay:10.37,2013-06-15 21:52:00,
2013-06-15 17:57:00,75.6,50.9,29.90,West,260,1.2,1.2,42,0.00,BKN,,0.00,WeatherDisplay:10.37,2013-06-15 21:57:00,
2013-06-15 18:02:00,75.6,52.8,29.90,SSW,196,0.0,0.0,45,0.00,BKN,,0.00,WeatherDisplay:10.37,2013-06-15 22:02:00,
2013-06-15 18:07:00,75.1,52.3,29.90,SSW,203,2.3,2.3,45,0.00,BKN,,0.00,WeatherDisplay:10.37,2013-06-15 22:07:00,
2013-06-15 18:12:00,74.9,52.8,29.90,South,179,5.8,5.8,46,0.00,BKN,,0.00,WeatherDisplay:10.37,2013-06-15 22:12:00,
2013-06-15 18:17:00,74.8,53.8,29.90,ENE,64,3.0,3.0,48,0.00,BKN,,0.00,WeatherDisplay:10.37,2013-06-15 22:17:00,
2013-06-15 18:22:00,74.5,53.6,29.90,North,357,2.3,2.3,48,0.00,BKN,,0.00,WeatherDisplay:10.37,2013-06-15 22:22:00,
2013-06-15 18:27:00,74.3,52.8,29.90,West,260,5.8,5.8,47,0.00,BKN,,0.00,WeatherDisplay:10.37,2013-06-15 22:27:00,
2013-06-15 18:32:00,74.4,54.6,29.90,West,272,0.0,0.0,50,0.00,BKN,,0.00,WeatherDisplay:10.37,2013-06-15 22:32:00,
2013-06-15 18:37:00,74.0,54.8,29.90,WSW,250,2.3,0.0,51,0.00,CLR,,0.00,WeatherDisplay:10.37,2013-06-15 22:37:00,
2013-06-15 18:42:00,73.9,54.7,29.90,NW,305,3.5,3.5,51,0.00,CLR,,0.00,WeatherDisplay:10.37,2013-06-15 22:42:00,
2013-06-15 18:47:00,73.6,53.8,29.90,WNW,291,0.0,0.0,50,0.00,CLR,,0.00,WeatherDisplay:10.37,2013-06-15 22:47:00,
2013-06-15 18:52:00,73.5,55.4,29.90,WNW,291,0.0,0.0,53,0.00,CLR,,0.00,WeatherDisplay:10.37,2013-06-15 22:52:00,
2013-06-15 18:57:00,73.0,53.8,29.90,WNW,291,0.0,0.0,51,0.00,CLR,,0.00,WeatherDisplay:10.37,2013-06-15 22:57:00,
2013-06-15 19:02:00,73.1,53.9,29.90,WNW,291,0.0,0.0,51,0.00,CLR,,0.00,WeatherDisplay:10.37,2013-06-15 23:02:00,
2013-06-15 19:07:00,72.9,57.8,29.90,WNW,291,0.0,0.0,59,0.00,CLR,,0.00,WeatherDisplay:10.37,2013-06-15 23:07:00,
2013-06-15 19:12:00,72.5,58.8,29.90,WNW,291,0.0,0.0,62,0.00,CLR,,0.00,WeatherDisplay:10.37,2013-06-15 23:12:00,
2013-06-15 19:17:00,72.0,57.4,29.90,WNW,291,0.0,0.0,60,0.00,CLR,,0.00,WeatherDisplay:10.37,2013-06-15 23:17:00,
2013-06-15 19:22:00,71.5,59.2,29.90,WNW,291,0.0,0.0,65,0.00,CLR,,0.00,WeatherDisplay:10.37,2013-06-15 23:22:00,
2013-06-15 19:27:00,70.8,58.9,29.91,WNW,291,0.0,0.0,66,0.00,CLR,,0.00,WeatherDisplay:10.37,2013-06-15 23:27:00,
2013-06-15 19:32:00,69.9,57.2,29.91,WNW,291,0.0,0.0,64,0.00,CLR,,0.00,WeatherDisplay:10.37,2013-06-15 23:32:00,
2013-06-15 19:37:00,69.4,56.7,29.91,WNW,282,1.2,1.2,64,0.00,CLR,,0.00,WeatherDisplay:10.37,2013-06-15 23:37:00,
2013-06-15 19:42:00,69.3,57.1,29.91,SW,224,0.0,0.0,65,0.00,CLR,,0.00,WeatherDisplay:10.37,2013-06-15 23:42:00,
2013-06-15 19:47:00,68.8,57.0,29.92,West,261,2.3,2.3,66,0.00,CLR,,0.00,WeatherDisplay:10.37,2013-06-15 23:47:00,
2013-06-15 19:52:00,68.4,57.5,29.92,SW,229,1.2,1.2,68,0.00,CLR,,0.00,WeatherDisplay:10.37,2013-06-15 23:52:00,
2013-06-15 19:57:00,68.0,57.1,29.92,WSW,246,0.0,0.0,68,0.00,CLR,,0.00,WeatherDisplay:10.37,2013-06-15 23:57:00,
2013-06-15 20:02:00,67.8,57.3,29.92,WSW,246,0.0,0.0,69,0.00,CLR,,0.00,WeatherDisplay:10.37,2013-06-16 00:02:00,
2013-06-15 20:07:00,67.5,57.0,29.93,WSW,246,0.0,0.0,69,0.00,CLR,,0.00,WeatherDisplay:10.37,2013-06-16 00:07:00,
2013-06-15 20:12:00,67.2,56.3,29.93,WSW,246,0.0,0.0,68,0.00,CLR,,0.00,WeatherDisplay:10.37,2013-06-16 00:12:00,
2013-06-15 20:17:00,67.0,56.9,29.92,WSW,246,0.0,0.0,70,0.00,CLR,,0.00,WeatherDisplay:10.37,2013-06-16 00:17:00,
2013-06-15 20:22:00,66.4,56.7,29.93,WSW,246,0.0,0.0,71,0.00,CLR,,0.00,WeatherDisplay:10.37,2013-06-16 00:22:00,
2013-06-15 20:27:00,66.1,56.5,29.93,WSW,246,0.0,0.0,71,0.00,CLR,,0.00,WeatherDisplay:10.37,2013-06-16 00:27:00,
2013-06-15 20:32:00,65.7,56.1,29.93,WSW,246,0.0,0.0,71,0.00,CLR,,0.00,WeatherDisplay:10.37,2013-06-16 00:32:00,
2013-06-15 20:38:00,65.5,55.9,29.93,WSW,246,0.0,0.0,71,0.00,CLR,,0.00,WeatherDisplay:10.37,2013-06-16 00:38:00,
2013-06-15 20:43:00,65.1,55.9,29.93,WSW,246,0.0,0.0,72,0.00,CLR,,0.00,WeatherDisplay:10.37,2013-06-16 00:43:00,
2013-06-15 20:48:00,64.6,55.4,29.93,WSW,246,0.0,0.0,72,0.00,CLR,,0.00,WeatherDisplay:10.37,2013-06-16 00:48:00,
2013-06-15 20:53:00,64.2,55.0,29.93,West,270,2.3,2.3,72,0.00,CLR,,0.00,WeatherDisplay:10.37,2013-06-16 00:53:00,
2013-06-15 20:58:00,64.1,54.9,29.94,WSW,253,0.0,0.0,72,0.00,CLR,,0.00,WeatherDisplay:10.37,2013-06-16 00:58:00,
2013-06-15 21:03:00,63.9,54.7,29.94,West,272,3.5,0.0,72,0.00,CLR,,0.00,WeatherDisplay:10.37,2013-06-16 01:03:00,
2013-06-15 21:08:00,63.7,54.5,29.94,WSW,246,2.0,2.0,72,0.00,CLR,,0.00,WeatherDisplay:10.37,2013-06-16 01:08:00,
2013-06-15 21:13:00,63.4,54.3,29.95,WSW,254,3.5,3.5,72,0.00,CLR,,0.00,WeatherDisplay:10.37,2013-06-16 01:13:00,
2013-06-15 21:18:00,63.2,54.4,29.95,WNW,299,2.3,2.3,73,0.00,CLR,,0.00,WeatherDisplay:10.37,2013-06-16 01:18:00,
2013-06-15 21:23:00,63.3,56.0,29.95,WSW,256,0.0,0.0,77,0.00,CLR,,0.00,WeatherDisplay:10.37,2013-06-16 01:23:00,
2013-06-15 21:28:00,63.1,55.4,29.95,WSW,256,0.0,0.0,76,0.00,CLR,,0.00,WeatherDisplay:10.37,2013-06-16 01:28:00,
2013-06-15 21:33:00,62.8,54.4,29.95,WSW,256,0.0,0.0,74,0.00,CLR,,0.00,WeatherDisplay:10.37,2013-06-16 01:33:00,
2013-06-15 21:38:00,62.5,53.4,29.95,WSW,256,0.0,0.0,72,0.00,CLR,,0.00,WeatherDisplay:10.37,2013-06-16 01:38:00,
2013-06-15 21:43:00,62.7,52.8,29.96,WSW,256,0.0,0.0,70,0.00,CLR,,0.00,WeatherDisplay:10.37,2013-06-16 01:43:00,
2013-06-15 21:48:00,62.8,53.3,29.96,WSW,256,0.0,0.0,71,0.00,CLR,,0.00,WeatherDisplay:10.37,2013-06-16 01:48:00,
2013-06-15 21:53:00,62.6,52.7,29.96,WSW,256,0.0,0.0,70,0.00,CLR,,0.00,WeatherDisplay:10.37,2013-06-16 01:53:00,
2013-06-15 21:58:00,62.6,52.3,29.96,WSW,256,0.0,0.0,69,0.00,CLR,,0.00,WeatherDisplay:10.37,2013-06-16 01:58:00,
2013-06-15 22:03:00,62.7,52.4,29.96,WSW,256,0.0,0.0,69,0.00,CLR,,0.00,WeatherDisplay:10.37,2013-06-16 02:03:00,
2013-06-15 22:08:00,62.6,51.9,29.97,WSW,256,0.0,0.0,68,0.00,CLR,,0.00,WeatherDisplay:10.37,2013-06-16 02:08:00,
2013-06-15 22:13:00,62.6,51.9,29.97,WSW,256,0.0,0.0,68,0.00,CLR,,0.00,WeatherDisplay:10.37,2013-06-16 02:13:00,
2013-06-15 22:18:00,62.6,51.9,29.97,WSW,256,0.0,0.0,68,0.00,CLR,,0.00,WeatherDisplay:10.37,2013-06-16 02:18:00,
2013-06-15 22:23:00,62.7,51.6,29.97,WSW,256,0.0,0.0,67,0.00,CLR,,0.00,WeatherDisplay:10.37,2013-06-16 02:23:00,
2013-06-15 22:28:00,62.7,51.6,29.97,NNW,347,0.0,0.4,67,0.00,CLR,,0.00,WeatherDisplay:10.37,2013-06-16 02:28:00,
2013-06-15 22:33:00,62.6,51.9,29.97,North,354,0.0,0.0,68,0.00,CLR,,0.00,WeatherDisplay:10.37,2013-06-16 02:33:00,
2013-06-15 22:38:00,62.6,51.1,29.97,North,354,0.0,0.0,66,0.00,CLR,,0.00,WeatherDisplay:10.37,2013-06-16 02:38:00,
2013-06-15 22:43:00,62.5,51.0,29.97,North,354,0.0,0.0,66,0.00,CLR,,0.00,WeatherDisplay:10.37,2013-06-16 02:43:00,
2013-06-15 22:48:00,62.5,51.0,29.97,ESE,119,0.0,0.0,66,0.00,CLR,,0.00,WeatherDisplay:10.37,2013-06-16 02:48:00,
2013-06-15 22:53:00,62.4,51.3,29.98,ESE,119,0.0,0.0,67,0.00,CLR,,0.00,WeatherDisplay:10.37,2013-06-16 02:53:00,
2013-06-15 22:58:00,62.3,51.2,29.98,ESE,119,0.0,0.0,67,0.00,CLR,,0.00,WeatherDisplay:10.37,2013-06-16 02:58:00,
2013-06-15 23:03:00,62.2,51.5,29.98,ESE,119,0.0,0.0,68,0.00,CLR,,0.00,WeatherDisplay:10.37,2013-06-16 03:03:00,
2013-06-15 23:08:00,62.0,52.1,29.98,ESE,119,0.0,0.0,70,0.00,CLR,,0.00,WeatherDisplay:10.37,2013-06-16 03:08:00,
2013-06-15 23:13:00,61.6,51.8,29.99,ESE,119,0.0,0.0,70,0.00,CLR,,0.00,WeatherDisplay:10.37,2013-06-16 03:13:00,
2013-06-15 23:18:00,61.0,51.6,29.98,ESE,119,0.0,0.0,71,0.00,CLR,,0.00,WeatherDisplay:10.37,2013-06-16 03:18:00,
2013-06-15 23:23:00,60.5,50.7,29.98,ESE,119,0.0,0.0,70,0.00,CLR,,0.00,WeatherDisplay:10.37,2013-06-16 03:23:00,
2013-06-15 23:28:00,60.2,50.0,29.99,ESE,119,0.0,0.0,69,0.00,CLR,,0.00,WeatherDisplay:10.37,2013-06-16 03:28:00,
2013-06-15 23:33:00,60.0,49.8,29.99,ESE,119,0.0,0.0,69,0.00,CLR,,0.00,WeatherDisplay:10.37,2013-06-16 03:33:00,
2013-06-15 23:38:00,59.9,49.7,29.99,ESE,119,0.0,0.0,69,0.00,CLR,,0.00,WeatherDisplay:10.37,2013-06-16 03:38:00,
2013-06-15 23:43:00,59.8,49.6,29.99,ESE,119,0.0,0.0,69,0.00,CLR,,0.00,WeatherDisplay:10.37,2013-06-16 03:43:00,
2013-06-15 23:48:00,59.7,49.5,29.99,ESE,119,0.0,0.0,69,0.00,CLR,,0.00,WeatherDisplay:10.37,2013-06-16 03:48:00,
2013-06-15 23:53:00,59.7,49.5,29.99,ESE,119,0.0,0.0,69,0.00,CLR,,0.00,WeatherDisplay:10.37,2013-06-16 03:53:00,
2013-06-15 23:58:00,59.6,49.5,29.99,ESE,119,0.0,0.0,69,0.00,CLR,,0.00,WeatherDisplay:10.37,2013-06-16 03:58:00,